period_start,C,m1,H,J0,J1,J2,J3,J4,J5,JA,JB,JC,JD,JJ,JK,JN,#
2018-02-06 00:03:37,0.32,14.97,0.00,18.26,21.09,24.50,14.38,52.48,1030.07,2046.98,917.92,1067.59,1230.29,600.01,613.69,22.95,0000 0000 0000 0000 000000
2018-02-06 00:08:38,0.31,14.99,0.00,18.27,21.12,24.52,14.43,52.57,1029.86,2046.96,916.89,1066.70,1229.25,600.09,613.76,23.00,0000 0000 0000 0000 000000
2018-02-06 00:13:39,0.32,15.01,0.00,18.28,21.14,24.54,14.41,52.58,1029.82,2046.93,915.80,1065.83,1228.27,599.85,613.59,23.05,0000 0000 0000 0000 000000
2018-02-06 00:18:41,0.25,15.02,0.00,18.29,21.16,24.56,14.38,52.61,1029.80,2046.64,914.78,1064.97,1227.25,599.98,613.50,23.10,0000 0000 0000 0000 000000
2018-02-06 00:23:42,0.27,15.03,0.00,18.29,21.18,24.59,14.44,52.61,1029.80,2046.22,913.75,1064.06,1226.21,600.15,613.66,23.15,0000 0000 0000 0000 000000
2018-02-06 00:28:43,0.33,15.05,0.00,18.32,21.20,24.62,14.37,52.34,1029.80,2046.06,912.67,1063.17,1225.17,600.14,613.65,23.20,0000 0000 0000 0000 000000
2018-02-06 00:33:45,0.35,15.07,0.00,18.32,21.23,24.63,14.35,52.48,1029.80,2046.01,911.55,1062.25,1224.08,599.95,613.41,23.25,0000 0000 0000 0000 000000
2018-02-06 00:38:46,0.38,15.09,0.00,18.34,21.24,24.66,14.40,52.50,1029.80,2046.00,910.32,1061.28,1222.85,600.05,613.47,23.30,0000 0000 0000 0000 000000
2018-02-06 00:43:47,0.39,15.11,0.00,18.38,21.27,24.69,14.33,52.43,1029.74,2046.00,908.94,1060.15,1221.62,600.00,613.36,23.35,0000 0000 0000 0000 000000
2018-02-06 00:48:48,0.43,15.12,0.00,18.39,21.29,24.72,14.45,52.52,1029.49,2046.00,907.65,1059.11,1220.44,599.87,612.98,23.40,0000 0000 0000 0000 000000
2018-02-06 00:53:50,0.37,15.15,0.00,18.41,21.32,24.73,14.43,52.48,1029.34,2046.00,906.40,1058.03,1219.12,600.07,613.15,23.46,0000 0000 0000 0000 000000
2018-02-06 00:58:51,0.36,15.17,0.00,18.45,21.34,24.75,14.38,52.44,1029.32,2045.97,905.15,1057.01,1217.91,599.69,612.59,23.51,0000 0000 0000 0000 000000
2018-02-06 01:03:53,0.40,15.19,0.00,18.46,21.36,24.78,14.37,52.55,1029.31,2045.96,903.91,1055.98,1216.77,600.25,613.13,23.56,0000 0000 0000 0000 000000
2018-02-06 01:08:54,0.36,15.20,0.00,18.48,21.38,24.79,14.46,52.52,1029.29,2045.82,902.71,1054.97,1215.61,600.20,612.90,23.61,0000 0000 0000 0000 000000
2018-02-06 01:13:56,0.31,15.22,0.00,18.51,21.41,24.81,14.38,52.43,1029.26,2045.45,901.54,1053.96,1214.58,599.95,612.61,23.66,0000 0000 0000 0000 000000
2018-02-06 01:18:57,0.30,15.23,0.00,18.52,21.43,24.84,14.35,52.44,1029.04,2045.16,900.44,1052.99,1213.48,599.83,612.43,23.71,0000 0000 0000 0000 000000
2018-02-06 01:23:59,0.34,15.25,0.00,18.54,21.46,24.85,14.36,52.41,1028.88,2045.03,899.34,1052.04,1212.40,599.69,612.18,23.76,0000 0000 0000 0000 000000
2018-02-06 01:29:00,0.34,15.27,0.00,18.57,21.48,24.87,14.42,52.44,1028.83,2045.01,898.21,1051.10,1211.35,600.16,612.48,23.81,0000 0000 0000 0000 000000
2018-02-06 01:34:02,0.34,15.29,0.00,18.59,21.51,24.90,14.41,52.48,1028.84,2045.00,897.09,1050.18,1210.21,599.98,612.32,23.86,0000 0000 0000 0000 000000
2018-02-06 01:39:03,0.32,15.30,0.00,18.63,21.53,24.94,14.30,52.36,1028.84,2045.00,896.08,1049.29,1209.18,599.76,612.09,23.91,0000 0000 0000 0000 000000
2018-02-06 01:44:04,0.34,15.32,0.00,18.66,21.55,24.95,14.33,52.49,1028.83,2044.99,895.04,1048.37,1208.13,599.84,611.90,23.96,0000 0000 0000 0000 000000
2018-02-06 01:49:05,0.33,15.34,0.00,18.67,21.58,24.98,14.42,52.51,1028.83,2044.98,893.97,1047.52,1207.07,600.32,612.45,24.01,0000 0000 0000 0000 000000
2018-02-06 01:54:07,0.34,15.36,0.00,18.68,21.60,25.00,14.41,52.51,1028.83,2044.95,892.91,1046.63,1206.01,600.11,612.18,24.06,0000 0000 0000 0000 000000
2018-02-06 01:59:08,0.27,15.37,0.00,18.70,21.62,25.02,14.39,52.63,1028.82,2044.93,891.91,1045.81,1205.03,600.06,612.06,24.11,0000 0000 0000 0000 000000
2018-02-06 02:04:09,0.29,15.39,0.00,18.75,21.64,25.04,14.28,52.54,1028.65,2044.73,890.88,1044.95,1204.05,599.86,611.65,24.16,0000 0000 0000 0000 000000
2018-02-06 02:09:10,0.31,15.40,0.00,18.79,21.67,25.06,14.34,52.47,1028.40,2044.27,889.73,1044.06,1203.06,599.85,611.55,24.21,0000 0000 0000 0000 000000
2018-02-06 02:14:12,0.33,15.42,0.00,18.82,21.69,25.09,14.47,52.60,1028.35,2044.15,888.67,1043.20,1202.08,600.32,611.88,24.26,0000 0000 0000 0000 000000
2018-02-06 02:19:13,0.28,15.43,0.00,18.83,21.71,25.10,14.40,52.60,1028.34,2044.03,887.79,1042.32,1201.08,600.01,611.68,24.31,0000 0000 0000 0000 000000
2018-02-06 02:24:14,0.30,15.45,0.00,18.87,21.74,25.12,14.39,52.52,1028.34,2044.01,886.82,1041.62,1200.15,599.85,611.14,24.36,0000 0000 0000 0000 000000
2018-02-06 02:29:16,0.27,15.46,0.00,18.88,21.76,25.15,14.40,52.61,1028.31,2044.00,885.84,1040.87,1199.23,599.96,611.27,24.41,0000 0000 0000 0000 000000
2018-02-06 02:34:17,0.28,15.48,0.00,18.93,21.78,25.16,14.33,52.66,1028.10,2044.00,884.94,1040.05,1198.31,600.04,611.29,24.46,0000 0000 0000 0000 000000
2018-02-06 02:39:18,0.33,15.49,0.00,18.93,21.79,25.20,14.38,52.63,1027.89,2044.00,884.04,1039.21,1197.47,600.29,611.46,24.51,0000 0000 0000 0000 000000
2018-02-06 02:44:19,0.30,15.51,0.00,18.97,21.82,25.22,14.41,52.52,1027.85,2043.99,883.11,1038.56,1196.58,600.13,611.00,24.56,0000 0000 0000 0000 000000
2018-02-06 02:49:20,0.29,15.52,0.00,19.01,21.84,25.24,14.38,52.51,1027.85,2043.98,882.15,1037.78,1195.64,600.06,610.88,24.61,0000 0000 0000 0000 000000
2018-02-06 02:54:22,0.26,15.54,0.00,19.04,21.86,25.27,14.27,52.44,1027.85,2043.81,881.18,1036.95,1194.67,599.73,610.57,24.66,0000 0000 0000 0000 000000
2018-02-06 02:59:23,0.28,15.55,0.00,19.06,21.88,25.29,14.33,52.42,1027.84,2043.52,880.21,1036.08,1193.73,599.79,610.49,24.71,0000 0000 0000 0000 000000
2018-02-06 03:04:24,0.25,15.56,0.00,19.09,21.91,25.31,14.36,52.37,1027.80,2043.18,879.32,1035.32,1192.83,599.92,610.74,24.76,0000 0000 0000 0000 000000
2018-02-06 03:09:26,0.30,15.58,0.00,19.11,21.93,25.32,14.31,52.36,1027.73,2043.07,878.32,1034.60,1191.92,599.73,610.31,24.81,0000 0000 0000 0000 000000
2018-02-06 03:14:27,0.29,15.59,0.00,19.14,21.94,25.35,14.32,52.42,1027.48,2043.01,877.31,1033.82,1190.93,599.88,610.34,24.86,0000 0000 0000 0000 000000
2018-02-06 03:19:28,0.30,15.61,0.00,19.16,21.97,25.37,14.29,52.32,1027.39,2043.00,876.36,1033.00,1189.99,599.93,610.06,24.91,0000 0000 0000 0000 000000
2018-02-06 03:24:30,0.35,15.63,0.00,19.18,21.99,25.38,14.31,52.28,1027.38,2043.00,875.36,1032.12,1189.07,600.11,610.32,24.96,0000 0000 0000 0000 000000
2018-02-06 03:29:31,0.34,15.64,0.00,19.18,22.01,25.42,14.26,52.31,1027.38,2042.99,874.36,1031.31,1188.11,599.94,610.16,25.01,0000 0000 0000 0000 000000
2018-02-06 03:34:32,0.33,15.66,0.00,19.19,22.03,25.44,14.36,52.48,1027.38,2042.98,873.32,1030.55,1187.13,600.06,610.17,25.06,0000 0000 0000 0000 000000
2018-02-06 03:39:33,0.31,15.67,0.00,19.22,22.05,25.44,14.27,52.54,1027.36,2042.98,872.29,1029.76,1186.20,600.05,610.25,25.11,0000 0000 0000 0000 000000
2018-02-06 03:44:35,0.27,15.69,0.00,19.23,22.07,25.49,14.44,52.65,1027.36,2042.94,871.39,1029.01,1185.33,600.41,610.28,25.16,0000 0000 0000 0000 000000
2018-02-06 03:49:36,0.32,15.70,0.00,19.26,22.09,25.49,14.33,52.63,1027.36,2042.78,870.45,1028.16,1184.43,600.14,610.23,25.21,0000 0000 0000 0000 000000
2018-02-06 03:54:37,0.25,15.71,0.00,19.29,22.11,25.52,14.40,52.69,1027.34,2042.31,869.49,1027.37,1183.49,600.08,609.94,25.26,0000 0000 0000 0000 000000
2018-02-06 03:59:38,0.29,15.73,0.00,19.30,22.13,25.54,14.31,52.72,1027.29,2042.13,868.52,1026.64,1182.53,599.73,609.63,25.31,0000 0000 0000 0000 000000
2018-02-06 04:04:39,0.27,15.74,0.00,19.32,22.15,25.56,14.39,52.63,1027.13,2042.05,867.57,1025.85,1181.56,600.29,610.16,25.36,0000 0000 0000 0000 000000
2018-02-06 04:09:41,0.34,15.76,0.00,19.32,22.17,25.59,14.35,52.65,1027.07,2042.01,866.50,1024.98,1180.49,600.22,609.83,25.41,0000 0000 0000 0000 000000
2018-02-06 04:14:42,0.35,15.78,0.00,19.36,22.19,25.60,14.29,52.77,1026.96,2042.00,865.49,1024.08,1179.53,600.09,609.70,25.46,0000 0000 0000 0000 000000
2018-02-06 04:19:43,0.35,15.79,0.00,19.38,22.22,25.62,14.33,52.71,1026.92,2042.00,864.50,1023.17,1178.50,600.12,609.62,25.51,0000 0000 0000 0000 000000
2018-02-06 04:24:45,0.35,15.81,0.00,19.40,22.23,25.65,14.31,52.62,1026.89,2042.00,863.46,1022.45,1177.42,599.95,609.43,25.56,0000 0000 0000 0000 000000
2018-02-06 04:29:46,0.36,15.83,0.00,19.42,22.25,25.67,14.24,52.55,1026.87,2041.98,862.29,1021.50,1176.32,599.97,609.41,25.61,0000 0000 0000 0000 000000
2018-02-06 04:34:48,0.35,15.85,0.00,19.42,22.27,25.69,14.36,52.64,1026.88,2041.98,861.14,1020.59,1175.21,600.19,609.47,25.66,0000 0000 0000 0000 000000
2018-02-06 04:39:49,0.36,15.87,0.00,19.45,22.29,25.70,14.25,52.44,1026.88,2041.92,859.98,1019.63,1174.08,599.85,609.23,25.71,0000 0000 0000 0000 000000
2018-02-06 04:44:51,0.40,15.89,0.00,19.46,22.31,25.72,14.27,52.64,1026.87,2041.86,858.81,1018.65,1172.96,599.78,609.12,25.76,0000 0000 0000 0000 000000
2018-02-06 04:49:52,0.38,15.91,0.00,19.49,22.33,25.75,14.33,52.66,1026.87,2041.74,857.64,1017.73,1171.86,600.10,609.45,25.81,0000 0000 0000 0000 000000
2018-02-06 04:54:53,0.32,15.93,0.00,19.50,22.34,25.75,14.33,52.52,1026.87,2041.45,856.51,1016.78,1170.71,600.10,609.31,25.86,0000 0000 0000 0000 000000
2018-02-06 04:59:54,0.31,15.94,0.00,19.50,22.37,25.78,14.34,52.58,1026.87,2041.14,855.37,1015.84,1169.64,600.25,609.42,25.91,0000 0000 0000 0000 000000
2018-02-06 05:04:56,0.39,15.96,0.00,19.52,22.38,25.80,14.37,52.52,1026.87,2041.06,854.14,1014.83,1168.47,600.02,609.12,25.96,0000 0000 0000 0000 000000
2018-02-06 05:09:57,0.38,15.98,0.00,19.51,22.39,25.81,14.31,52.56,1026.87,2041.02,852.92,1013.84,1167.35,599.96,609.16,26.01,0000 0000 0000 0000 000000
2018-02-06 05:14:58,0.42,16.00,0.00,19.50,22.42,25.82,14.31,52.54,1026.87,2041.00,851.73,1012.88,1166.18,599.80,609.11,26.06,0000 0000 0000 0000 000000
2018-02-06 05:20:00,0.41,16.02,0.00,19.49,22.43,25.84,14.33,52.60,1026.85,2041.00,850.56,1011.89,1165.00,600.26,609.47,26.11,0000 0000 0000 0000 000000
2018-02-06 05:25:01,0.39,16.04,0.00,19.51,22.44,25.87,14.33,52.65,1026.83,2041.00,849.41,1010.89,1163.84,599.95,609.13,26.16,0000 0000 0000 0000 000000
2018-02-06 05:30:03,0.40,16.06,0.00,19.51,22.46,25.87,14.33,52.66,1026.83,2040.99,848.23,1009.90,1162.66,599.95,609.21,26.21,0000 0000 0000 0000 000000
2018-02-06 05:35:04,0.39,16.08,0.00,19.51,22.47,25.89,14.27,52.80,1026.69,2040.98,847.03,1008.92,1161.57,600.07,609.23,26.26,0000 0000 0000 0000 000000
2018-02-06 05:40:05,0.39,16.10,0.00,19.49,22.48,25.89,14.26,52.72,1026.64,2040.98,845.83,1008.02,1160.43,599.98,609.12,26.31,0000 0000 0000 0000 000000
2018-02-06 05:45:07,0.39,16.12,0.00,19.52,22.49,25.90,14.34,52.67,1026.61,2040.96,844.70,1007.12,1159.37,599.89,608.93,26.36,0000 0000 0000 0000 000000
2018-02-06 05:50:08,0.36,16.14,0.00,19.52,22.51,25.91,14.39,52.87,1026.47,2040.91,843.67,1006.18,1158.35,600.03,609.04,26.41,0000 0000 0000 0000 000000
2018-02-06 05:55:09,0.35,16.16,0.00,19.53,22.52,25.91,14.31,52.80,1026.44,2040.91,842.71,1005.39,1157.42,599.76,608.63,26.46,0000 0000 0000 0000 000000
2018-02-06 06:00:10,0.29,16.17,0.00,19.52,22.52,25.92,14.37,52.81,1026.42,2040.90,841.75,1004.69,1156.51,599.89,608.76,26.51,0000 0000 0000 0000 000000
2018-02-06 06:05:12,0.24,16.19,0.00,19.53,22.54,25.91,14.28,52.73,1026.40,2040.66,840.80,1003.95,1155.57,599.77,608.68,26.56,0000 0000 0000 0000 000000
2018-02-06 06:10:13,0.32,16.20,0.00,19.54,22.54,25.92,14.28,52.89,1026.41,2040.56,839.83,1003.10,1154.74,600.03,608.95,26.61,0000 0000 0000 0000 000000
2018-02-06 06:15:14,0.28,16.22,0.00,19.54,22.55,25.92,14.32,52.83,1026.40,2040.42,838.89,1002.31,1153.82,599.88,608.89,26.66,0000 0000 0000 0000 000000
2018-02-06 06:20:16,0.28,16.23,0.00,19.53,22.56,25.94,14.38,52.83,1026.39,2040.23,837.95,1001.61,1152.97,599.97,608.78,26.71,0000 0000 0000 0000 000000
2018-02-06 06:25:17,0.24,16.25,0.00,19.51,22.57,25.94,14.36,52.75,1026.39,2040.11,837.06,1000.93,1152.06,600.01,608.98,26.76,0000 0000 0000 0000 000000
2018-02-06 06:30:18,0.37,16.26,0.00,19.50,22.57,25.93,14.29,52.75,1026.38,2040.14,836.14,1000.09,1151.18,599.98,609.00,26.81,0000 0000 0000 0000 000000
2018-02-06 06:35:20,0.33,16.28,0.00,19.51,22.57,25.93,14.26,52.77,1026.38,2040.17,835.23,999.47,1150.46,599.98,608.99,26.86,0000 0000 0000 0000 000000
2018-02-06 06:40:21,0.29,16.29,0.00,19.50,22.59,25.97,14.29,52.85,1026.38,2040.07,834.31,998.74,1149.66,599.90,608.87,26.91,0000 0000 0000 0000 000000
2018-02-06 06:45:22,0.27,16.31,0.00,19.49,22.59,25.94,14.33,52.87,1026.38,2040.04,833.40,998.02,1148.82,599.96,608.90,26.96,0000 0000 0000 0000 000000
2018-02-06 06:50:24,0.33,16.32,0.00,19.49,22.59,25.95,14.36,52.85,1026.38,2040.05,832.53,997.25,1148.01,600.12,609.19,27.02,0000 0000 0000 0000 000000
2018-02-06 06:55:25,0.31,16.34,0.00,19.50,22.59,25.95,14.34,52.84,1026.38,2040.06,831.63,996.66,1147.13,600.12,609.14,27.07,0000 0000 0000 0000 000000
2018-02-06 07:00:26,0.19,16.35,0.00,19.49,22.59,25.95,14.24,52.89,1026.38,2040.03,830.89,995.96,1146.31,599.61,608.58,27.12,0000 0000 0000 0000 000000
2018-02-06 07:05:27,0.34,16.37,0.00,19.48,22.60,25.95,14.36,52.95,1026.38,2040.02,830.04,995.14,1145.45,600.25,609.06,27.17,0000 0000 0000 0000 000000
2018-02-06 07:10:29,0.32,16.38,0.00,19.48,22.60,25.93,14.33,52.92,1026.38,2040.03,829.15,994.54,1144.68,599.94,608.98,27.22,0000 0000 0000 0000 000000
2018-02-06 07:15:30,0.29,16.40,0.00,19.49,22.60,25.93,14.31,52.83,1026.38,2040.02,828.27,993.79,1143.80,599.73,608.67,27.27,0000 0000 0000 0000 000000
2018-02-06 07:20:31,0.31,16.42,0.00,19.46,22.60,25.96,14.35,52.84,1026.38,2040.00,827.33,993.03,1142.93,600.02,609.06,27.32,0000 0000 0000 0000 000000
2018-02-06 07:25:32,0.33,16.43,0.00,19.44,22.60,25.95,14.39,52.88,1026.37,2040.01,826.50,992.25,1142.04,599.94,608.97,27.37,0000 0000 0000 0000 000000
2018-02-06 07:30:34,0.32,16.44,0.00,19.44,22.60,25.96,14.40,53.02,1026.38,2040.01,825.52,991.70,1141.15,600.19,609.27,27.42,0000 0000 0000 0000 000000
2018-02-06 07:35:35,0.26,16.46,0.00,19.44,22.60,25.95,14.38,53.08,1026.28,2040.01,824.69,990.91,1140.33,600.25,609.37,27.47,0000 0000 0000 0000 000000
2018-02-06 07:40:36,0.31,16.48,0.00,19.44,22.60,25.94,14.29,52.98,1026.19,2040.01,823.82,990.06,1139.51,599.78,608.66,27.52,0000 0000 0000 0000 000000
2018-02-06 07:45:38,0.34,16.49,0.00,19.43,22.60,25.94,14.34,53.02,1026.04,2040.01,822.88,989.38,1138.67,600.15,608.99,27.57,0000 0000 0000 0000 000000
2018-02-06 07:50:39,0.25,16.51,0.00,19.43,22.59,25.94,14.32,53.05,1025.99,2040.01,822.00,988.73,1137.82,599.91,608.78,27.62,0000 0000 0000 0000 000000
2018-02-06 07:55:41,0.30,16.53,0.00,19.40,22.59,25.93,14.38,53.08,1025.91,2040.00,821.08,988.01,1136.97,600.09,608.92,27.67,0000 0000 0000 0000 000000
2018-02-06 08:00:42,0.36,16.54,0.00,19.40,22.59,25.89,14.31,53.05,1025.90,2040.00,820.13,987.21,1136.10,599.89,608.80,27.72,0000 0000 0000 0000 000000
2018-02-06 08:05:44,0.33,16.56,0.00,19.42,22.59,25.89,14.20,53.09,1025.90,2040.00,819.22,986.63,1135.29,599.84,608.73,27.77,0000 0000 0000 0000 000000
2018-02-06 08:10:45,0.28,16.57,0.00,19.41,22.59,25.89,14.39,53.14,1025.89,2040.00,818.38,985.98,1134.51,600.14,609.08,27.82,0000 0000 0000 0000 000000
2018-02-06 08:15:46,0.28,16.58,0.00,19.39,22.58,25.88,14.38,53.13,1025.89,2040.02,817.65,985.21,1133.82,599.90,608.76,27.87,0000 0000 0000 0000 000000
2018-02-06 08:20:47,0.21,16.60,0.00,19.36,22.57,25.90,14.35,53.02,1025.89,2040.04,816.84,984.77,1133.04,599.78,608.72,27.92,0000 0000 0000 0000 000000
2018-02-06 08:25:48,0.30,16.62,0.00,19.35,22.57,25.92,14.38,53.12,1025.89,2040.05,816.01,984.03,1132.25,600.23,609.37,27.97,0000 0000 0000 0000 000000
2018-02-06 08:30:50,0.34,16.63,0.00,19.33,22.57,25.88,14.36,53.13,1025.89,2040.04,815.15,983.43,1131.53,600.32,609.26,28.02,0000 0000 0000 0000 000000
2018-02-06 08:35:52,0.24,16.64,0.00,19.33,22.55,25.87,14.35,53.19,1025.89,2040.08,814.32,982.92,1130.83,600.11,609.14,28.07,0000 0000 0000 0000 000000
2018-02-06 08:40:53,0.33,16.66,0.00,19.32,22.54,25.85,14.34,53.10,1025.89,2040.11,813.55,982.09,1130.03,599.96,609.11,28.12,0000 0000 0000 0000 000000
2018-02-06 08:45:54,0.29,16.67,0.00,19.30,22.54,25.83,14.35,53.34,1025.82,2040.15,812.80,981.52,1129.22,600.32,609.39,28.17,0000 0000 0000 0000 000000
2018-02-06 08:50:56,0.22,16.69,0.00,19.30,22.52,25.82,14.31,53.36,1025.85,2040.25,812.00,981.00,1128.58,600.16,609.24,28.22,0000 0000 0000 0000 000000
2018-02-06 08:55:57,0.36,16.70,0.00,19.29,22.52,25.81,14.36,53.34,1025.81,2040.51,811.18,980.23,1127.92,600.15,609.12,28.27,0000 0000 0000 0000 000000
2018-02-06 09:00:58,0.30,16.72,0.00,19.28,22.50,25.79,14.33,53.33,1025.74,2040.60,810.39,979.81,1127.08,599.87,608.91,28.32,0000 0000 0000 0000 000000
2018-02-06 09:05:59,0.28,16.73,0.00,19.27,22.49,25.79,14.37,53.22,1025.52,2040.47,809.58,979.04,1126.28,600.11,608.98,28.37,0000 0000 0000 0000 000000
2018-02-06 09:11:01,0.27,16.74,0.00,19.26,22.49,25.79,14.33,53.25,1025.46,2040.49,808.86,978.40,1125.62,599.70,608.59,28.42,0000 0000 0000 0000 000000
2018-02-06 09:16:02,0.25,16.76,0.00,19.25,22.47,25.78,14.28,53.18,1025.44,2040.77,808.03,977.96,1124.94,599.78,608.80,28.47,0000 0000 0000 0000 000000
2018-02-06 09:21:03,0.39,16.78,0.00,19.24,22.46,25.79,14.36,53.22,1025.42,2040.94,807.21,977.17,1124.11,600.04,608.97,28.52,0000 0000 0000 0000 000000
2018-02-06 09:26:05,0.25,16.79,0.00,19.21,22.44,25.78,14.25,53.35,1025.41,2040.96,806.52,976.81,1123.51,599.77,608.83,28.57,0000 0000 0000 0000 000000
2018-02-06 09:31:06,0.22,16.80,0.00,19.19,22.42,25.78,14.40,53.48,1025.41,2040.98,805.79,976.06,1122.89,599.98,608.94,28.62,0000 0000 0000 0000 000000
2018-02-06 09:36:07,0.25,16.81,0.00,19.16,22.41,25.78,14.43,53.39,1025.41,2040.98,805.03,975.68,1122.08,600.42,609.49,28.67,0000 0000 0000 0000 000000
2018-02-06 09:41:08,0.29,16.83,0.00,19.13,22.39,25.78,14.38,53.35,1025.40,2040.99,804.24,975.02,1121.47,599.88,609.03,28.72,0000 0000 0000 0000 000000
2018-02-06 09:46:10,0.26,16.84,0.00,19.11,22.38,25.76,14.32,53.25,1025.39,2040.99,803.60,974.48,1120.93,599.87,609.05,28.77,0000 0000 0000 0000 000000
2018-02-06 09:51:11,0.19,16.85,0.00,19.08,22.36,25.78,14.41,53.42,1025.39,2040.99,802.90,973.99,1120.10,600.33,609.57,28.82,0000 0000 0000 0000 000000
2018-02-06 09:56:12,0.32,16.87,0.00,19.06,22.34,25.83,14.33,53.42,1025.32,2040.99,802.08,973.29,1119.56,599.95,609.16,28.87,0000 0000 0000 0000 000000
2018-02-06 10:01:14,0.19,16.88,0.00,19.02,22.32,25.87,14.36,53.58,1025.22,2040.99,801.43,972.98,1118.97,600.04,609.44,28.92,0000 0000 0000 0000 000000
2018-02-06 10:06:15,0.24,16.89,0.00,19.00,22.30,25.82,14.35,53.57,1025.32,2041.01,800.87,972.32,1118.18,600.10,609.41,28.97,0000 0000 0000 0000 000000
2018-02-06 10:11:16,0.20,16.90,0.00,18.99,22.28,25.77,14.41,53.57,1025.32,2041.02,800.06,972.00,1117.84,600.23,609.64,29.02,0000 0000 0000 0000 000000
2018-02-06 10:16:17,0.29,16.91,0.00,18.99,22.26,25.87,14.36,53.53,1025.10,2041.06,799.54,971.45,1117.07,599.84,609.19,29.07,0000 0000 0000 0000 000000
2018-02-06 10:21:19,0.15,16.92,0.00,18.95,22.24,25.83,14.44,53.59,1025.05,2041.19,798.93,971.00,1116.75,600.03,609.42,29.12,0000 0000 0000 0000 000000
2018-02-06 10:26:20,0.33,16.94,0.00,18.93,22.22,25.75,14.32,53.59,1024.94,2041.45,798.11,970.58,1116.03,599.93,609.30,29.17,0000 0000 0000 0000 000000
2018-02-06 10:31:22,0.28,16.95,0.00,18.89,22.19,25.67,14.33,53.51,1024.93,2041.90,797.62,970.02,1115.68,599.92,609.27,29.22,0000 0000 0000 0000 000000
2018-02-06 10:36:23,0.14,16.97,0.00,18.89,22.17,25.65,14.37,53.59,1024.92,2041.98,797.00,969.84,1115.03,600.17,609.59,29.27,0000 0000 0000 0000 000000
2018-02-06 10:41:24,0.32,16.98,0.00,18.87,22.15,25.59,14.34,53.48,1024.91,2041.96,796.31,969.09,1114.58,600.00,609.31,29.32,0000 0000 0000 0000 000000
2018-02-06 10:46:25,0.07,16.99,0.00,18.86,22.13,25.52,14.33,53.52,1024.73,2041.98,795.96,968.99,1114.01,600.24,609.56,29.37,0000 0000 0000 0000 000000
2018-02-06 10:51:27,0.33,17.00,0.00,18.84,22.12,25.54,14.37,53.58,1024.55,2041.99,795.18,968.41,1113.60,600.06,609.32,29.42,0000 0000 0000 0000 000000
2018-02-06 10:56:28,0.14,17.01,0.00,18.82,22.09,25.52,14.28,53.58,1024.57,2041.99,794.77,968.01,1113.01,599.97,609.18,29.47,0000 0000 0000 0000 000000
2018-02-06 11:01:29,0.21,17.02,0.00,18.80,22.08,25.51,14.33,53.55,1024.53,2041.99,794.04,967.71,1112.57,599.65,609.05,29.52,0000 0000 0000 0000 000000
2018-02-06 11:06:30,0.27,17.03,0.00,18.79,22.06,25.45,14.36,53.73,1024.43,2042.00,793.46,967.03,1112.01,599.94,609.21,29.57,0000 0000 0000 0000 000000
2018-02-06 11:11:32,0.09,17.04,0.00,18.76,22.04,25.42,14.46,53.67,1024.43,2042.02,792.96,966.86,1111.50,600.27,609.50,29.62,0000 0000 0000 0000 000000
2018-02-06 11:16:33,0.29,17.05,0.00,18.74,22.02,25.42,14.45,53.64,1024.43,2042.04,792.22,966.11,1111.00,600.12,609.51,29.67,0000 0000 0000 0000 000000
2018-02-06 11:21:34,0.14,17.06,0.00,18.73,22.01,25.39,14.39,53.71,1024.43,2042.13,791.84,965.98,1110.40,599.86,609.21,29.72,0000 0000 0000 0000 000000
2018-02-06 11:26:35,0.27,17.07,0.00,18.71,21.99,25.35,14.43,53.81,1024.43,2042.18,791.07,965.33,1109.99,600.48,609.96,29.77,0000 0000 0000 0000 000000
2018-02-06 11:31:37,0.27,17.08,0.00,18.68,21.97,25.35,14.47,53.92,1024.43,2042.32,790.59,965.00,1109.33,600.26,609.63,29.82,0000 0000 0000 0000 000000
2018-02-06 11:36:38,0.17,17.09,0.00,18.66,21.95,25.34,14.42,53.95,1024.41,2042.71,790.00,964.68,1108.99,600.36,609.92,29.87,0000 0000 0000 0000 000000
2018-02-06 11:41:39,0.32,17.11,0.00,18.62,21.93,25.33,14.38,53.97,1024.38,2042.87,789.25,964.05,1108.29,600.18,609.80,29.92,0000 0000 0000 0000 000000
2018-02-06 11:46:40,0.12,17.12,0.00,18.59,21.91,25.35,14.35,53.80,1024.43,2042.95,788.79,963.93,1107.98,600.04,609.72,29.97,0000 0000 0000 0000 000000
2018-02-06 11:51:41,0.29,17.13,0.00,18.55,21.88,25.39,14.45,53.77,1024.43,2042.98,788.04,963.20,1107.28,600.10,609.86,30.02,0000 0000 0000 0000 000000
2018-02-06 11:56:43,0.12,17.14,0.00,18.53,21.86,25.45,14.33,53.70,1024.43,2042.99,787.69,962.99,1106.98,599.59,609.50,30.07,0000 0000 0000 0000 000000
2018-02-06 12:01:44,0.24,17.15,0.00,18.50,21.83,25.45,14.41,53.79,1024.43,2042.99,787.04,962.57,1106.28,599.99,609.82,30.12,0000 0000 0000 0000 000000
2018-02-06 12:06:45,0.23,17.16,0.00,18.49,21.81,25.42,14.33,53.88,1024.43,2042.99,786.37,962.02,1105.95,599.63,609.54,30.17,0000 0000 0000 0000 000000
2018-02-06 12:11:47,0.12,17.17,0.00,18.47,21.79,25.33,14.41,53.72,1024.43,2042.99,785.92,961.77,1105.17,600.11,609.96,30.22,0000 0000 0000 0000 000000
2018-02-06 12:16:48,0.28,17.18,0.00,18.44,21.77,25.35,14.41,53.71,1024.43,2043.03,785.12,961.07,1104.95,599.74,609.79,30.27,0000 0000 0000 0000 000000
2018-02-06 12:21:49,0.21,17.19,0.00,18.42,21.74,25.30,14.44,53.76,1024.43,2043.10,784.60,960.94,1104.16,600.12,610.24,30.32,0000 0000 0000 0000 000000
2018-02-06 12:26:51,0.23,17.21,0.00,18.40,21.72,25.28,14.44,53.63,1024.43,2043.32,783.99,960.20,1103.81,600.10,610.13,30.37,0000 0000 0000 0000 000000
2018-02-06 12:31:52,0.36,17.22,0.00,18.39,21.69,25.29,14.37,53.58,1024.43,2043.81,783.15,959.96,1103.04,600.22,610.34,30.42,0000 0000 0000 0000 000000
2018-02-06 12:36:53,0.34,17.24,0.00,18.38,21.67,25.24,14.44,53.64,1024.43,2043.95,782.51,959.24,1102.37,599.97,610.22,30.47,0000 0000 0000 0000 000000
2018-02-06 12:41:54,0.09,17.25,0.00,18.36,21.64,25.22,14.38,53.62,1024.43,2043.97,781.98,958.99,1101.90,600.04,610.15,30.52,0000 0000 0000 0000 000000
2018-02-06 12:46:56,0.33,17.26,0.00,18.34,21.62,25.18,14.37,53.62,1024.43,2043.98,781.20,958.45,1101.11,600.11,610.31,30.57,0000 0000 0000 0000 000000
2018-02-06 12:51:57,0.22,17.27,0.00,18.32,21.59,25.16,14.37,53.75,1024.41,2043.99,780.63,958.00,1100.71,599.98,610.19,30.62,0000 0000 0000 0000 000000
2018-02-06 12:56:58,0.20,17.28,0.00,18.31,21.57,25.16,14.42,53.84,1024.18,2043.99,780.00,957.41,1100.01,600.09,610.28,30.67,0000 0000 0000 0000 000000